2019-052A (44486 NORAD) Tracking and Keplerian Element Data

This shows tracking and keplerian element data for the satellite.

Feedback or suggestion? Click here.




ElementValue
Catalog44486
Name2019-052A
Epoch Orbit414
Epoch Day256.73050973
Epoch Year2019
RAAN329.7904
Inclination97.6047
Eccentricity0.0021838
Argument of Perigee155.4353
Mean Anonmoly327.2393
Mean Motion15.06993897
Decay Rate-5.7E-07
L11 44486U 19052A 19256.73050973 -.00000057 00000-0 45124-6 0 9995
L22 44486 97.6047 329.7904 0021838 155.4353 327.2393 15.06993897 4148

Live tracking and technical data element details for 2019-052A (NORAD 44486). 2019-052A can be tracked NOW for your location showing map with azimuth and elevation plus other details from your city location.

Track the satellite on the map from your city or location and see movement details for azimuth, elevation, latitude, longitude, range, height, and movement on the map or in text.







IsCatalogInMostPopularTable: catalog: 44486, numindb: 17
Update: records affected: 1



GetName: 44486 2019-052A

Hit Count: updated at: Tue, 22 Oct 2019 23:30:48 GMT